Weather Roundup
Issued by NWS Springfield, MO

Home | Current Version | Previous Version | Text Only | Print | Product List | Glossary On
Versions: 1 2 3 4 5 6 7 8 9 10 11 12 13 14 15 16 17 18 19 20 21 22 23 24 25 26 27 28 29 30 31 32 33 34 35 36 37 38 39 40 41 42 43 44 45 46 47 48 49 50
225
NZUS99 KSGF 300207
HRRSGF

HOURLY WEATHER
NATIONAL WEATHER SERVICE SPRINGFIELD MO
900 PM CDT MON AUG 29 2016

......SGF CWA......

CITY           SKY/WX    TMP DP  RH WIND       PRES   REMARKS
SPRINGFIELD    PTCLDY    75  68  78 SW3       30.14R
JOPLIN         CLEAR     78  68  71 SE5       30.13R
WEST PLAINS    CLEAR     77  72  84 N5        30.15R
ROLLA          CLEAR     77  70  79 SE5       30.14R
OSAGE BEACH    CLEAR     77  73  87 NE5       30.14R
BRANSON        MOCLDY    73  72  94 CALM      30.14R

......SURROUNDING SGF CWA......

CITY           SKY/WX    TMP DP  RH WIND       PRES   REMARKS
CHANUTE        MOCLDY    75  71  87 CALM      30.12R
PARSONS        TSTM      76  69  79 CALM      30.15R
COFFEYVILLE    LGT RAIN  74  71  91 E3        30.11R
EMPORIA        PTCLDY    76  73  91 CALM      30.14R
GROVE OK       CLEAR     77  70  78 CALM      30.12R
ROGERS AR      CLOUDY    74  70  87 E5        30.15R
SILOAM SPRINGS CLEAR     77  63  61 NE5       30.13R
HARRISON AR    CLOUDY    72  70  93 W3        30.14R
NEAR YELLVILLE CLOUDY    75  70  83 CALM      30.08R

......KANSAS AND MISSOURI......

CITY           SKY/WX    TMP DP  RH WIND       PRES   REMARKS
KANSAS CTY INT PTCLDY    81  70  69 NE6       30.14R
DOWNTOWN KC    CLEAR     81  73  76 N3        30.12R
COLUMBIA       CLEAR     78  73  84 E3        30.14R
SEDALIA        CLOUDY    81  73  76 CALM      30.14R
ST JOSEPH      MOCLDY    77  73  87 CALM      30.13R
ST LOUIS       MOCLDY    85  74  69 E8        30.13R HX  92
SPIRIT OF STL  PTCLDY    81  77  88 CALM      30.11R
KIRKSVILLE     CLEAR     75  71  87 NE3       30.16S
WICHITA        CLOUDY    80  69  69 S3        30.13R
TOPEKA         CLOUDY    80  73  79 CALM      30.12R
OLATHE         PTCLDY    81  71  71 CALM      30.14R

......TENNESSEE......

CITY           SKY/WX    TMP DP  RH WIND       PRES   REMARKS
MEMPHIS        MOCLDY    87  72  60 NE7       30.06R HX  93
NASHVILLE      CLEAR     84  72  67 NE7       30.10R

......ARKANSAS.......

CITY           SKY/WX    TMP DP  RH WIND       PRES   REMARKS
FAYETTEVILLE   CLOUDY    75  71  87 CALM      30.13R
FT SMITH       CLOUDY    77  69  76 NE7       30.08R
LITTLE ROCK    PTCLDY    81  69  67 CALM      30.04R

......OKLAHOMA.......

CITY           SKY/WX    TMP DP  RH WIND       PRES   REMARKS
TULSA          MOCLDY    79  72  79 E3        30.08R THUNDER
PONCA CITY     MOCLDY    79  70  74 NE3       30.10R
MCALESTER      CLEAR     84  70  62 VRB6      30.07R
OKLAHOMA CITY  CLOUDY    80  69  69 NE9       30.10R

......IOWA............

CITY           SKY/WX    TMP DP  RH WIND       PRES   REMARKS
DES MOINES     CLOUDY    75  70  84 NE5       30.16R
QUAD CITIES    CLOUDY    75  72  90 N3        30.16R

......ILLINOIS........

CITY           SKY/WX    TMP DP  RH WIND       PRES   REMARKS
QUINCY         CLEAR     77  73  87 NE5       30.14R
CHICAGO        CLOUDY    75  72  90 NE6       30.17S




USA.gov is the U.S. government's official web portal to all federal, state and local government web resources and services.